Вернуться в каталог

STARLINK-35905

АктивенСвязьVLEO
NORAD 67048·PAYLOAD·🇺🇸 United States

Запущен Dec 11, 2025 с Cape Canaveral Space Force Station

Loading…

Ближайшие Пролёты (ближайшие 24 часа)

TLE

СвежийSource: CelesTrak SupGP

Эпоха: Sep 15, 2026, 02:41 UTC

1 67048C 25294U   26258.11229167 -.00024014  00000+0 -86948-3 0  2587
2 67048  43.0046  48.3902 0001950 274.8766 245.0581 15.27601134    11

Отслеживайте STARLINK-35905 в реальном времени с AllMySat

Download on the App Store